Total_Precipitation_Accumulation
0.08 0.09 0.18 0.14 0.11 0.13 0.15 0.17 0.17 0.14 0.11 0.13 0.13 0.10 0.07 0.06 0.05 0.05 0.06 0.07 0.10 0.15 0.19 0.24 0.28 0.28 0.31 0.32 0.30 0.30 0.29 0.30 0.37 0.41 0.44 0.46 0.54 0.69 0.86 0.84 0.89 0.58 0.53
0.03 0.05 0.14 0.12 0.10 0.11 0.13 0.15 0.16 0.15 0.12 0.11 0.10 0.09 0.07 0.07 0.06 0.07 0.09 0.11 0.13 0.16 0.19 0.23 0.23 0.23 0.23 0.21 0.21 0.22 0.25 0.34 0.43 0.48 0.54 0.51 0.61 0.74 0.81 0.77 0.88 0.52 0.45
0.05 0.03 0.08 0.12 0.09 0.10 0.13 0.14 0.16 0.14 0.14 0.13 0.12 0.10 0.09 0.09 0.10 0.09 0.10 0.13 0.15 0.17 0.19 0.20 0.18 0.17 0.16 0.15 0.16 0.21 0.29 0.40 0.60 0.77 0.96 0.60 0.43 0.69 0.74 0.66 0.53 0.35 0.36
0.05 0.03 0.03 0.09 0.09 0.08 0.11 0.12 0.15 0.15 0.16 0.16 0.14 0.12 0.12 0.12 0.14 0.16 0.16 0.15 0.16 0.18 0.17 0.17 0.16 0.14 0.13 0.14 0.17 0.23 0.32 0.43 0.73 1.06 1.24 0.55 0.25 0.40 0.48 0.40 0.34 0.31 0.33
0.05 0.04 0.04 0.06 0.08 0.08 0.09 0.12 0.13 0.14 0.16 0.18 0.16 0.13 0.14 0.16 0.19 0.20 0.20 0.18 0.20 0.19 0.17 0.18 0.15 0.15 0.14 0.15 0.20 0.27 0.32 0.44 0.70 0.97 0.84 0.62 0.54 0.38 0.32 0.32 0.35 0.35 0.34
0.07 0.06 0.06 0.08 0.08 0.08 0.09 0.11 0.13 0.16 0.17 0.17 0.14 0.15 0.15 0.19 0.21 0.21 0.20 0.20 0.20 0.17 0.17 0.16 0.15 0.16 0.16 0.18 0.25 0.31 0.42 0.58 0.72 0.57 0.48 0.58 0.53 0.39 0.33 0.39 0.41 0.35 0.36
0.10 0.10 0.11 0.11 0.10 0.11 0.11 0.12 0.14 0.15 0.16 0.17 0.15 0.16 0.17 0.21 0.21 0.20 0.19 0.20 0.19 0.16 0.17 0.18 0.19 0.16 0.18 0.21 0.28 0.35 0.48 0.65 0.68 0.45 0.45 0.67 0.55 0.33 0.37 0.50 0.60 0.48 0.36
0.15 0.18 0.19 0.19 0.18 0.15 0.14 0.13 0.15 0.17 0.17 0.18 0.19 0.19 0.19 0.22 0.23 0.22 0.21 0.21 0.20 0.17 0.17 0.20 0.22 0.21 0.21 0.24 0.32 0.38 0.43 0.47 0.48 0.43 0.42 0.54 0.40 0.31 0.38 0.55 0.70 0.67 0.59
0.38 0.47 0.39 0.27 0.23 0.23 0.22 0.21 0.20 0.22 0.24 0.23 0.23 0.21 0.22 0.23 0.24 0.25 0.27 0.27 0.26 0.24 0.24 0.22 0.20 0.24 0.26 0.29 0.33 0.38 0.42 0.47 0.56 0.58 0.48 0.51 0.35 0.35 0.44 0.53 0.65 0.74 0.74
0.56 0.57 0.52 0.38 0.33 0.26 0.22 0.25 0.27 0.28 0.29 0.27 0.25 0.26 0.26 0.25 0.27 0.32 0.32 0.39 0.39 0.40 0.43 0.40 0.31 0.31 0.37 0.40 0.39 0.43 0.47 0.48 0.55 0.60 0.70 0.57 0.44 0.49 0.57 0.59 0.64 0.77 0.83
0.99 0.86 0.74 0.48 0.38 0.35 0.30 0.28 0.35 0.36 0.35 0.35 0.37 0.36 0.42 0.50 0.56 0.70 0.63 0.73 0.69 0.71 0.71 0.69 0.63 0.62 0.66 0.55 0.57 0.65 0.64 0.57 0.75 0.83 0.76 0.57 0.58 0.76 0.87 0.75 0.72 0.76 0.81
1.50 1.31 1.06 0.77 0.60 0.53 0.44 0.46 0.51 0.51 0.61 0.61 0.76 0.82 0.99 1.18 1.15 0.90 1.02 1.24 1.29 1.28 1.22 1.22 1.34 1.20 1.02 0.88 1.20 1.41 0.85 0.72 0.89 0.85 0.79 0.87 1.03 1.25 1.39 1.17 0.97 0.87 0.82
1.68 1.51 1.37 1.15 0.92 0.73 0.72 0.70 0.77 0.89 1.18 1.07 1.01 1.14 1.46 1.36 1.13 1.02 1.16 1.45 1.73 1.73 1.65 1.76 1.91 1.56 1.63 1.80 1.93 1.95 1.32 1.09 1.18 1.11 0.91 1.13 1.38 1.68 1.88 1.70 1.35 1.16 1.02
2.25 2.00 1.78 1.62 1.39 1.29 1.19 1.06 0.96 1.01 1.14 1.13 1.25 1.19 1.50 1.60 1.47 1.41 1.54 1.64 1.85 2.08 2.42 2.33 2.46 2.34 2.26 2.13 2.17 2.14 1.87 1.76 1.64 1.67 1.63 1.58 1.68 1.91 2.18 2.18 1.89 1.58 1.34
2.69 2.46 2.31 2.16 2.05 1.99 1.80 1.58 1.26 1.30 1.26 1.29 1.47 1.48 1.60 1.85 1.92 1.99 1.95 1.87 1.79 2.15 2.57 2.78 2.51 2.79 2.81 2.41 2.11 2.00 1.95 1.93 2.11 2.31 2.17 2.34 2.27 2.22 2.43 2.47 2.28 2.05 1.86
2.85 2.96 3.04 2.90 2.76 2.72 2.49 2.28 2.01 1.81 1.85 1.80 1.82 1.94 2.08 2.27 2.41 2.44 2.29 2.20 2.00 2.03 2.33 2.56 2.57 2.79 2.68 2.53 1.96 1.87 1.82 1.95 2.13 2.17 2.17 2.62 2.59 2.37 2.36 2.48 2.50 2.36 2.20
3.01 3.45 3.71 3.74 3.62 3.56 3.42 3.08 2.69 2.48 2.48 2.59 2.62 2.66 2.60 2.67 2.87 2.74 2.48 2.18 2.08 2.15 2.28 2.29 2.33 2.42 2.29 2.21 1.99 2.05 2.01 1.92 1.82 1.84 1.97 2.19 2.14 1.99 1.98 2.09 2.30 2.47 2.62
3.30 3.86 4.17 4.30 4.48 4.35 4.25 3.88 3.39 3.10 2.98 2.93 2.98 2.97 2.87 2.87 2.76 2.68 2.34 2.01 2.06 2.17 2.17 2.16 2.05 2.14 2.17 2.23 2.20 2.05 2.13 2.01 1.64 1.60 1.66 1.63 1.70 1.57 1.72 1.84 1.96 2.16 2.61
3.58 4.27 4.66 5.11 5.36 5.23 4.88 4.32 3.85 3.70 3.51 3.29 3.24 3.13 2.95 2.73 2.55 2.59 2.28 2.12 2.05 2.05 1.96 1.85 2.03 2.16 2.17 2.21 2.08 1.97 1.78 1.60 1.36 1.22 1.20 1.09 1.20 1.38 1.52 1.62 1.72 1.82 2.29
3.68 4.44 5.03 5.54 5.70 5.40 4.84 4.38 4.19 4.02 3.67 3.37 3.04 2.78 2.51 2.36 2.20 2.28 2.04 1.95 2.03 2.07 1.90 1.91 2.08 2.11 1.93 2.01 1.90 1.72 1.52 1.27 1.15 1.03 0.89 0.88 0.83 0.81 1.00 1.34 1.63 1.43 1.78
3.91 4.60 5.16 5.51 5.45 5.20 4.82 4.40 4.09 3.61 3.26 2.94 2.59 2.38 2.15 1.90 1.79 1.97 1.78 1.86 1.87 1.82 1.67 1.62 1.70 1.71 1.52 1.78 1.99 1.59 1.21 1.04 0.93 0.80 0.78 0.83 0.76 0.82 1.01 1.25 1.43 1.52 1.44
3.67 4.15 4.53 4.47 4.14 4.00 3.92 3.77 3.48 3.45 3.31 3.05 2.80 2.56 2.17 1.95 1.78 1.61 1.65 1.56 1.57 1.64 1.48 1.38 1.51 1.51 1.31 1.54 1.66 1.62 1.22 1.04 0.88 0.63 0.66 0.67 0.75 0.91 0.93 0.99 1.21 1.37 1.31
3.07 3.35 3.40 3.26 3.03 3.03 3.06 2.96 2.99 3.17 3.20 3.08 2.87 2.59 2.31 2.14 1.99 1.83 1.65 1.48 1.44 1.36 1.34 1.31 1.39 1.41 1.32 1.27 1.31 1.47 1.23 0.97 0.81 0.59 0.54 0.59 0.78 0.95 0.92 1.00 1.03 1.19 1.24
2.27 2.42 2.45 2.46 2.40 2.39 2.43 2.32 2.18 2.23 2.37 2.52 2.73 2.73 2.69 2.49 2.23 1.97 1.78 1.54 1.32 1.21 1.29 1.10 1.15 1.33 1.39 1.19 1.12 1.10 1.11 1.20 1.14 0.83 0.57 0.50 0.71 0.81 0.84 0.83 0.91 1.12 1.24
1.55 1.71 1.77 2.00 2.26 2.33 2.30 2.37 2.23 1.96 1.88 1.88 1.98 2.09 2.11 2.11 1.99 1.75 1.62 1.51 1.26 1.10 1.10 1.09 1.21 1.22 1.23 1.12 1.10 1.07 1.13 1.26 1.21 1.11 0.85 0.72 0.73 0.66 0.64 0.70 0.84 1.03 1.17
1.18 1.35 1.55 1.83 2.17 2.34 2.36 2.30 2.22 2.06 1.97 1.82 1.72 1.67 1.59 1.64 1.62 1.52 1.43 1.37 1.21 1.11 1.11 1.07 1.13 1.17 1.22 1.23 1.22 1.22 1.24 1.24 1.27 1.38 1.19 1.01 0.92 0.76 0.72 0.83 0.96 1.13 1.26